GW0451 Weather Reports


time (UTC)temp
C
wind
direction
speed
KPH
gust
KPH
rain 1hr
cm
rain 24hr
cm
rain mn
cm
humidity
%
barometer
mb
20260504050537 3 0 0.0 0.0 0.00 0.00 0.00 80 1013.5
20260504045539 3 0 0.0 0.0 0.00 0.00 0.00 80 1013.4
20260504045039 3 0 0.0 0.0 0.00 0.00 0.00 80 1013.5
20260504044545 3 0 0.0 0.0 0.00 0.00 0.00 79 1013.5
20260504044039 3 0 0.0 0.0 0.00 0.00 0.00 79 1013.4
20260504043539 3 0 0.0 0.0 0.00 0.00 0.00 79 1013.5
20260504043051 3 0 0.0 0.0 0.00 0.00 0.00 79 1013.5
20260504042539 3 0 0.0 0.0 0.00 0.00 0.00 79 1013.4
20260504042039 3 0 0.0 0.0 0.00 0.00 0.00 79 1013.4
20260504041551 4 0 0.0 0.0 0.00 0.00 0.00 78 1013.4
20260504041036 4 0 0.0 0.0 0.00 0.00 0.00 78 1013.4
20260504040536 4 0 0.0 0.0 0.00 0.00 0.00 78 1013.3
20260504040131 4 0 0.0 0.0 0.00 0.00 0.00 77 1013.2
20260504035539 4 0 0.0 0.0 0.00 0.00 0.00 77 1013.3
20260504035037 5 0 0.0 0.0 0.00 0.00 0.00 76 1013.2
20260504034556 5 0 0.0 0.0 0.00 0.00 0.00 76 1013.0
20260504034036 5 0 0.0 0.0 0.00 0.00 0.00 76 1013.0
20260504033536 5 0 0.0 0.0 0.00 0.00 0.00 76 1013.0
20260504033052 5 0 0.0 0.0 0.00 0.00 0.00 75 1012.9
20260504032541 5 0 0.0 0.0 0.00 0.00 0.00 75 1012.9
20260504032039 5 0 0.0 0.0 0.00 0.00 0.00 74 1012.9
20260504031601 5 0 0.0 0.0 0.00 0.00 0.00 74 1013.0
20260504031036 5 0 0.0 0.0 0.00 0.00 0.00 74 1013.0
20260504030536 5 0 0.0 0.0 0.00 0.00 0.00 73 1012.9
20260504030049 5 0 0.0 0.0 0.00 0.00 0.00 73 1012.9
20260504025537 6 0 0.0 0.0 0.00 0.00 0.00 73 1012.9
20260504025036 6 0 0.0 0.0 0.00 0.00 0.00 73 1012.9
20260504024553 6 0 0.0 0.0 0.00 0.00 0.00 72 1012.8
20260504024036 6 0 0.0 0.0 0.00 0.00 0.00 72 1012.9
20260504023536 6 0 0.0 0.0 0.00 0.00 0.00 71 1012.9
20260504023052 6 0 0.0 0.0 0.00 0.00 0.00 71 1012.8
20260504022536 6 0 0.0 0.0 0.00 0.00 0.00 70 1013.0
20260504022039 6 0 0.0 0.0 0.00 0.00 0.00 70 1012.8
20260504021548 6 0 0.0 0.0 0.00 0.00 0.00 70 1012.8
20260504021039 7 0 0.0 0.0 0.00 0.00 0.00 69 1012.9
20260504020536 7 0 0.0 0.0 0.00 0.00 0.00 68 1012.8
20260504020106 7 0 0.0 0.0 0.00 0.00 0.00 68 1013.0
20260504015541 7 0 0.0 1.6 0.00 0.00 0.00 67 1012.9
20260504015037 7 0 0.0 3.2 0.00 0.00 0.00 66 1012.9
20260504014554 8 0 0.0 3.2 0.00 0.00 0.00 65 1012.8
20260504014036 8 0 0.0 3.2 0.00 0.00 0.00 64 1012.8
20260504013538 8 0 0.0 3.2 0.00 0.00 0.00 63 1012.7
20260504013051 9 0 0.0 3.2 0.00 0.00 0.00 61 1012.7
20260504012539 10 0 0.0 0.0 0.00 0.00 0.00 59 1012.7
20260504012042 10 0 0.0 0.0 0.00 0.00 0.00 58 1012.7
20260504011551 10 0 0.0 0.0 0.00 0.00 0.00 55 1012.5
20260504011039 11 0 0.0 0.0 0.00 0.00 0.00 54 1012.4
20260504010536 11 0 0.0 0.0 0.00 0.00 0.00 51 1012.6
20260504010055 11 0 0.0 1.6 0.00 0.00 0.00 52 1012.4
20260504005539 11 0 0.0 1.6 0.00 0.00 0.00 51 1012.5
20260504005042 12 0 0.0 1.6 0.00 0.00 0.00 50 1012.5
20260504004547 12 0 0.0 0.0 0.00 0.00 0.00 48 1012.4
20260504004038 12 0 0.0 0.0 0.00 0.00 0.00 49 1012.3
20260504003539 12 0 0.0 1.6 0.00 0.00 0.00 47 1012.3
20260504003046 13 0 0.0 1.6 0.00 0.00 0.00 45 1012.2
20260504002539 13 0 0.0 3.2 0.00 0.00 0.00 42 1012.1
20260504002036 13 0 0.0 3.2 0.00 0.00 0.00 43 1012.1
20260504001552 13 0 0.0 6.4 0.00 0.00 0.00 40 1012.0
20260504001039 13 0 0.0 6.4 0.00 0.00 0.00 40 1012.0
20260504000538 13 0 1.6 8.0 0.00 0.00 0.00 40 1011.9
20260504000050 13 221 3.2 17.7 0.00 0.00 0.00 38 1011.9
20260503235539 13 192 3.2 17.7 0.00 0.00 0.00 38 1011.8
20260503235037 13 240 1.6 17.7 0.00 0.00 0.00 37 1011.9
20260503234620 14 228 6.4 17.7 0.00 0.00 0.00 36 1011.8
20260503234037 14 216 1.6 12.9 0.00 0.00 0.00 37 1011.8
20260503233538 14 348 1.6 14.5 0.00 0.00 0.00 36 1011.8
20260503233050 14 229 4.8 17.7 0.00 0.00 0.00 36 1011.7
20260503232536 14 321 6.4 17.7 0.00 0.00 0.00 35 1011.7
20260503232039 15 243 6.4 17.7 0.00 0.00 0.00 35 1011.7
20260503231549 15 250 4.8 19.3 0.00 0.00 0.00 35 1011.7
20260503231036 15 196 3.2 19.3 0.00 0.00 0.00 35 1011.6
20260503230541 15 222 4.8 22.5 0.00 0.00 0.00 34 1011.6
20260503230054 15 205 4.8 22.5 0.00 0.00 0.00 34 1011.5
20260503225538 15 244 9.7 22.5 0.00 0.00 0.00 34 1011.5
20260503225043 15 225 4.8 17.7 0.00 0.00 0.00 34 1011.5
20260503224550 15 0 6.4 19.3 0.00 0.00 0.00 34 1011.6
20260503224040 15 276 4.8 19.3 0.00 0.00 0.00 34 1011.6
20260503223539 15 258 6.4 20.9 0.00 0.00 0.00 33 1011.6
20260503223050 15 257 6.4 20.9 0.00 0.00 0.00 33 1011.7
20260503222543 15 258 6.4 19.3 0.00 0.00 0.00 33 1011.6
20260503222036 16 192 4.8 16.1 0.00 0.00 0.00 34 1011.7
20260503221556 16 283 4.8 22.5 0.00 0.00 0.00 34 1011.6
20260503221040 16 298 8.0 22.5 0.00 0.00 0.00 32 1011.6
20260503220540 16 215 3.2 16.1 0.00 0.00 0.00 33 1011.6
20260503220055 16 306 3.2 19.3 0.00 0.00 0.00 32 1011.6
20260503215540 16 261 4.8 22.5 0.00 0.00 0.00 32 1011.6
20260503215040 16 289 6.4 27.4 0.00 0.00 0.00 32 1011.6
20260503214550 16 243 8.0 27.4 0.00 0.00 0.00 32 1011.5
20260503214040 16 245 4.8 27.4 0.00 0.00 0.00 32 1011.6
20260503213541 16 243 9.7 22.5 0.00 0.00 0.00 32 1011.5
20260503213047 15 238 6.4 22.5 0.00 0.00 0.00 33 1011.3
20260503212539 15 326 8.0 22.5 0.00 0.00 0.00 33 1011.3
20260503212041 15 234 8.0 27.4 0.00 0.00 0.00 33 1011.3
20260503211552 15 252 4.8 27.4 0.00 0.00 0.00 33 1011.4
20260503211040 15 0 8.0 25.7 0.00 0.00 0.00 33 1011.4
20260503210540 15 187 4.8 16.1 0.00 0.00 0.00 33 1011.3
20260503210047 16 221 4.8 19.3 0.00 0.00 0.00 33 1011.4
20260503205541 16 268 3.2 19.3 0.00 0.00 0.00 33 1011.4
20260503205040 15 260 3.2 17.7 0.00 0.00 0.00 34 1011.4
20260503204553 15 274 6.4 17.7 0.00 0.00 0.00 33 1011.4
20260503204040 15 290 3.2 16.1 0.00 0.00 0.00 34 1011.4
20260503203540 15 0 4.8 17.7 0.00 0.00 0.00 33 1011.4
20260503203057 15 226 4.8 22.5 0.00 0.00 0.00 33 1011.5
20260503202542 15 334 6.4 27.4 0.00 0.00 0.00 33 1011.5
20260503202042 16 245 1.6 27.4 0.00 0.00 0.00 33 1011.4
20260503201551 16 290 6.4 17.7 0.00 0.00 0.00 33 1011.4
20260503201039 15 329 4.8 24.1 0.00 0.00 0.00 32 1011.4
20260503200540 15 334 4.8 24.1 0.00 0.00 0.00 35 1011.5
20260503200054 15 246 9.7 24.1 0.00 0.00 0.00 33 1011.3
20260503195544 15 200 3.2 20.9 0.00 0.00 0.00 35 1011.4
20260503195042 15 275 6.4 20.9 0.00 0.00 0.00 34 1011.6
20260503194558 15 187 6.4 20.9 0.00 0.00 0.00 34 1011.5
20260503194040 15 238 6.4 14.5 0.00 0.00 0.00 34 1011.8
20260503193540 14 360 3.2 9.7 0.00 0.00 0.00 35 1011.9
20260503193056 14 250 1.6 16.1 0.00 0.00 0.00 33 1012.0
20260503192540 14 297 3.2 20.9 0.00 0.00 0.00 34 1012.1
20260503192040 14 234 1.6 20.9 0.00 0.00 0.00 35 1012.2
20260503191554 14 279 8.0 22.5 0.00 0.00 0.00 33 1012.2
20260503191042 14 159 9.7 22.5 0.00 0.00 0.00 33 1012.3
20260503190610 14 336 4.8 14.5 0.00 0.00 0.00 33 1012.4
20260503190050 14 253 1.6 17.7 0.00 0.00 0.00 34 1012.4
20260503185540 14 233 4.8 17.7 0.00 0.00 0.00 33 1012.4
20260503185041 14 259 6.4 17.7 0.00 0.00 0.00 33 1012.5
20260503184557 14 266 3.2 19.3 0.00 0.00 0.00 32 1012.5
20260503184041 14 313 6.4 19.3 0.00 0.00 0.00 32 1012.7
20260503183541 14 287 4.8 27.4 0.00 0.00 0.00 34 1012.8
20260503183054 14 355 4.8 27.4 0.00 0.00 0.00 32 1012.9
20260503182539 14 300 9.7 27.4 0.00 0.00 0.00 34 1012.9
20260503182041 13 326 4.8 25.7 0.00 0.00 0.00 34 1012.9
20260503181552 13 288 11.3 25.7 0.00 0.00 0.00 34 1012.9
20260503181041 13 262 8.0 25.7 0.00 0.00 0.00 35 1012.9
20260503180541 13 210 9.7 24.1 0.00 0.00 0.00 35 1012.9
20260503180100 13 355 8.0 22.5 0.00 0.00 0.00 35 1013.0
20260503175541 13 190 3.2 19.3 0.00 0.00 0.00 36 1013.0
20260503175040 13 223 3.2 19.3 0.00 0.00 0.00 37 1013.2
20260503174557 12 300 6.4 22.5 0.00 0.00 0.00 36 1013.2
20260503174036 12 243 4.8 27.4 0.00 0.00 0.00 36 1013.3
20260503173536 13 277 6.4 27.4 0.00 0.00 0.00 35 1013.3
20260503173047 13 258 9.7 27.4 0.00 0.00 0.00 36 1013.4
20260503172538 13 355 4.8 22.5 0.00 0.00 0.00 37 1013.3
20260503172037 12 261 8.0 27.4 0.00 0.00 0.00 37 1013.4
20260503171552 12 285 8.0 27.4 0.00 0.00 0.00 39 1013.6
20260503171039 12 300 8.0 27.4 0.00 0.00 0.00 38 1013.7
20260503170539 12 184 4.8 17.7 0.00 0.00 0.00 39 1013.6
20260503150539 9 338 1.6 9.7 0.00 0.00 0.00 46 1014.6
20260503131040 6 275 3.2 17.7 0.00 0.00 0.00 58 1015.0
20260503130545 6 320 3.2 17.7 0.00 0.00 0.00 59 1015.0
20260503110540 2 270 0.0 4.8 0.00 0.00 0.00 77 1014.4
20260503110107 2 0 0.0 3.2 0.00 0.00 0.00 77 1014.4
20260503081544 5 0 0.0 3.2 0.00 0.00 0.00 65 1013.2
20260503081040 5 360 0.0 4.8 0.00 0.00 0.00 64 1013.2
20260503080544 5 317 0.0 4.8 0.00 0.00 0.00 64 1013.2
20260503072540 6 0 0.0 6.4 0.00 0.18 0.00 64 1012.7
20260503072038 6 0 1.6 6.4 0.00 0.18 0.00 65 1012.7
20260503071601 6 346 0.0 6.4 0.00 0.18 0.00 64 1012.7
20260503071040 6 351 1.6 6.4 0.00 0.18 0.00 64 1012.7
20260503070540 6 0 0.0 0.0 0.00 0.18 0.00 65 1012.7